Voltar ao catálogo

CZ-6A DEB

AtivoSSO
NORAD 54561·DEBRIS·🇨🇳 China

Lançado Nov 11, 2022 de Taiyuan Satellite Launch Center

Loading…

Próximas Passagens (próximas 24 horas)

TLE

AtualizadoSource: Space-Track

Época: Sep 14, 2026, 01:14 UTC

1 54561U 22151LM  26257.05182616  .00000837  00000-0  29927-3 0  9993
2 54561  98.7686 301.6376 0132010 212.9572 146.3331 14.32076837199919

Acompanhe CZ-6A DEB em tempo real com AllMySat

Download on the App Store